Weather in Yersi

Russia / Republic of Dagestan     42°00′50″N   48°01′16″E
temp.,
°C
wind,
m/s
gust,
m/s
humid.,
%
clouds,
%
prec.,
mm/h
press.,
hPa
HPBL,
m
19 april, mon
mon1900:00+14nw1167100 0.0 101511
03:00+12se1176100 0.0 101610
06:00+12ssw117590 0.0 101618
09:00+17e226154 0.0 1016565
12:00+20ese564935 0.0 1014968
15:00+20ese4447100 0.0 1014996
18:00+16e236123 0.0 101596
21:00+12s117336 0.0 101611
20 april, tue
tue2000:00+12s1170100 0.0 101510
03:00+12s226796 0.0 101316
06:00+12s1170100 0.0 101319
09:00+16ne2161100 0.0 1013379
12:00+20ese335263 0.0 1010436
15:00+24ese3341100 0.0 1007330
18:00+18se2266100 0.0 100720
21:00+18sw1159100 0.1 100812
21 april, wed
wed2100:00+20sw2247100 0.1 100719
03:00+15nnw4865100 0.1 1010175
06:00+12se238383 0.0 1013108
09:00+15ese567398 0.0 1015540
12:00+16e447372 0.0 1015751
15:00+16nne43649 0.6 1015708
18:00+14n246998 0.4 1018588
21:00+11ssw118353 0.5 102032
22 april, thu
thu2200:00+11sw11817 0.0 102024
03:00+9sw11855 0.0 102010
06:00+10sse118297 0.0 102148
09:00+14nne326124 0.0 1020937
12:00+16nne435994 0.0 10201116
15:00+14n556684 0.0 10211014
18:00+10n3483100 0.0 1023468
21:00+9n1288100 0.0 1024287
23 april, fri
fri2300:00+9wnw128868 0.0 1023157
03:00+9nw228553 0.0 102226
06:00+9nnw128328 0.0 1022130
09:00+12n3365100 0.0 10221160
12:00+10n4575100 0.1 1023766
15:00+11nnw227080 0.1 1023691
18:00+12n116851 0.0 1023163
21:00+8ssw118294 0.0 102310